Wind_Speed
2 2 2 2 1 0 1 1 1 1 2 3 5 6 6 6 6 7 8 8 8 8 8 9 9 9 10 10 10 10 10 10 10 10 9 9 9 9 9 9 9 9 9 9 8 8 8 8 8 8 8 9 9 9 9 9 10 10 10 10 10 10 10 10 9 9 9 9 8 8 8 8 7 7 6 6 6 6 7 7 7 7 7 7 7 8
2 2 2 2 1 0 1 2 3 3 3 4 5 6 6 6 5 5 6 6 6 6 6 6 6 6 6 7 8 8 8 8 8 7 7 7 7 6 6 6 6 6 6 6 6 6 6 7 7 7 8 8 8 9 9 9 9 9 9 9 10 10 9 9 9 9 8 8 7 7 7 7 6 6 6 6 6 6 7 7 7 7 7 7 7 7
2 2 1 1 1 0 1 2 3 4 4 4 5 5 5 4 3 3 3 3 3 3 3 3 3 3 3 4 5 5 4 4 4 4 4 4 4 4 4 4 4 4 4 5 5 6 6 7 7 7 8 8 8 8 8 8 8 9 9 8 8 8 8 8 9 8 8 8 7 7 7 7 6 6 6 6 7 7 7 8 8 8 8 8 8 8
2 2 1 1 1 1 1 2 2 3 3 3 3 3 3 2 2 1 2 3 3 3 3 3 3 3 3 3 3 4 3 2 2 3 3 3 3 3 3 3 3 4 4 5 5 6 6 7 7 8 8 8 8 8 8 8 8 8 8 8 8 8 8 8 8 9 9 8 8 7 7 7 7 7 7 7 8 8 8 8 9 9 9 9 9 9
2 2 2 2 1 1 1 1 1 1 1 2 2 3 3 3 3 4 4 3 2 2 3 3 3 3 2 2 3 3 3 2 2 2 2 2 2 2 2 3 3 4 4 5 6 6 7 8 8 8 8 8 8 8 8 8 8 8 8 8 8 8 8 7 7 7 7 7 7 7 8 8 8 8 8 8 9 9 9 9 10 10 10 10 10 10
2 2 2 3 2 2 1 1 1 2 3 3 3 4 4 4 4 4 3 2 2 2 2 2 2 2 2 2 3 3 4 3 3 2 2 2 2 2 2 3 4 5 6 6 7 8 9 9 10 10 10 9 9 9 9 9 9 8 8 8 8 8 8 8 7 7 6 6 6 7 7 8 8 8 8 9 9 10 10 10 10 10 10 10 10 10
3 3 3 3 3 3 3 3 3 3 3 2 2 2 2 3 3 2 2 2 1 2 2 2 2 2 2 3 3 4 4 4 5 5 5 5 5 5 5 5 6 7 8 9 10 11 11 12 12 12 12 12 11 11 10 10 10 9 9 9 9 9 9 8 8 7 7 7 7 7 7 7 8 8 9 9 10 10 10 10 10 10 10 9 9 9
4 3 3 3 3 3 4 3 3 3 3 2 1 1 1 1 1 1 1 1 1 1 2 2 2 2 2 3 3 3 3 4 4 4 5 5 6 6 7 8 9 10 11 12 13 13 14 15 15 15 15 15 14 13 12 11 11 10 10 10 10 9 9 9 8 8 8 8 8 8 8 8 9 9 10 10 11 11 10 10 10 10 9 9 9 9
4 4 4 3 3 3 3 3 3 4 3 2 1 1 0 0 0 0 0 1 1 2 2 2 2 2 2 3 3 3 3 3 3 3 4 5 6 7 9 10 11 12 13 15 15 16 16 16 17 16 16 16 16 16 14 13 12 11 11 11 10 10 9 9 9 9 9 9 9 9 9 10 10 11 11 11 11 10 10 10 9 9 9 9 9 9
4 4 4 3 3 3 3 3 3 3 3 2 1 1 1 1 1 1 1 0 1 2 2 2 2 2 2 3 4 4 5 6 7 8 9 9 10 11 12 13 14 15 16 16 17 17 18 18 18 17 17 17 17 16 16 14 13 11 11 11 11 10 10 10 10 10 10 10 10 11 11 11 11 11 11 10 10 10 9 9 9 9 9 9 9 9
4 4 4 3 3 3 3 3 2 2 2 1 1 1 1 1 2 2 2 1 1 2 2 2 3 3 3 4 4 5 7 7 8 9 11 12 13 14 15 15 16 16 17 18 18 19 19 19 19 18 18 17 17 16 15 14 13 12 11 11 11 11 11 11 11 11 11 11 11 11 11 11 11 10 10 10 9 9 9 9 9 9 9 9 9 9
3 3 3 3 3 3 2 2 2 2 1 1 1 1 1 1 1 1 3 3 2 2 3 3 4 5 6 6 6 7 8 8 8 8 9 11 12 13 14 15 15 16 17 17 18 19 19 19 19 18 17 16 15 14 14 13 13 12 12 12 12 12 12 12 12 12 12 12 11 11 11 10 10 10 9 9 9 8 8 8 9 9 9 9 9 9
3 3 3 3 2 2 2 2 2 1 1 1 0 0 2 2 2 1 2 3 3 3 4 4 5 6 8 9 9 9 9 9 8 9 9 9 9 10 11 13 14 14 15 15 15 15 16 16 16 15 14 13 12 12 12 11 11 11 11 11 11 11 11 11 11 11 11 10 10 10 9 9 9 9 9 9 9 8 8 9 9 9 9 9 9 9
3 3 3 2 2 2 2 1 1 1 1 1 1 1 2 2 2 2 2 3 3 3 4 5 6 6 7 9 10 10 9 9 8 9 9 8 8 9 10 12 13 13 13 12 12 11 12 12 12 12 12 11 10 10 10 10 9 9 9 9 9 9 9 9 9 9 9 9 9 9 9 9 9 9 9 9 9 9 9 9 9 9 9 9 9 9
3 3 2 2 2 2 1 1 1 1 1 2 2 1 1 2 2 2 3 4 4 5 5 6 7 6 5 7 8 9 9 8 8 8 8 8 8 8 10 12 13 12 11 10 9 9 9 9 8 8 8 8 8 8 9 9 8 8 8 8 8 8 8 8 8 8 8 8 9 9 9 9 9 9 9 9 9 9 9 9 10 10 10 10 10 10
2 2 2 2 2 2 2 1 1 1 2 2 2 1 1 2 2 3 4 5 5 6 6 6 7 6 4 5 6 8 8 8 8 8 9 9 8 8 10 12 12 11 9 8 7 7 7 7 7 7 7 8 9 10 10 10 9 9 9 8 9 9 9 9 9 9 9 9 9 9 9 9 9 9 9 9 9 10 10 10 10 10 10 10 11 11
2 1 1 2 2 2 2 1 1 1 1 1 1 1 1 2 3 3 4 5 5 6 5 5 5 5 4 4 4 7 8 9 9 9 9 9 8 8 10 12 11 9 8 7 6 6 6 6 7 7 8 10 11 11 11 11 11 11 10 10 10 10 10 10 10 10 10 10 10 10 10 10 10 10 10 10 10 10 10 10 11 11 11 11 11 11
2 1 1 2 2 2 2 2 1 1 1 1 1 1 1 2 3 4 4 5 5 5 5 5 4 4 4 4 4 5 9 10 10 9 9 8 7 7 10 11 11 9 7 7 6 6 6 8 9 10 11 12 12 12 12 13 13 12 12 12 11 11 11 10 10 10 10 10 10 10 10 10 10 10 11 11 11 11 11 11 11 11 11 11 11 11
2 2 1 1 2 2 2 2 1 1 1 1 2 2 3 3 3 4 4 4 4 4 5 5 5 5 5 6 5 7 10 11 10 9 8 8 7 7 8 10 10 8 7 7 7 7 8 10 12 13 14 13 13 13 13 14 14 14 13 13 13 12 12 11 11 11 11 11 11 11 11 11 11 11 11 11 11 11 11 11 11 11 11 11 11 12
2 2 2 1 1 2 2 1 1 1 1 1 2 3 4 4 4 4 4 4 4 4 5 5 6 6 6 6 6 7 9 10 9 8 8 8 8 7 7 8 9 8 8 7 7 8 9 11 13 13 13 13 13 14 14 14 14 14 14 13 13 13 12 12 12 11 11 11 11 11 11 11 11 11 11 11 11 11 11 11 11 11 11 12 12 12
1 2 2 2 1 1 1 1 1 0 1 2 3 3 4 4 4 4 4 4 4 5 5 5 6 6 6 6 7 8 9 9 8 7 7 8 7 7 7 8 8 8 8 8 8 8 10 11 12 12 12 13 13 13 13 14 14 14 13 13 13 13 12 12 12 11 11 11 11 11 11 11 11 11 11 11 11 11 11 11 11 12 12 12 13 13
1 1 2 2 1 1 1 1 0 1 2 3 3 3 4 4 5 5 5 5 5 5 5 6 6 7 7 8 8 9 11 9 7 6 7 7 7 6 5 7 8 8 8 8 8 9 10 11 12 12 12 12 12 12 12 12 12 12 12 11 11 11 10 10 10 10 10 10 11 10 10 10 10 10 10 10 10 11 11 11 12 12 13 13 13 14
1 2 2 2 1 1 1 1 1 2 3 4 4 5 5 5 6 6 7 6 7 7 7 8 8 9 10 10 10 9 9 9 8 6 5 6 6 6 5 7 8 8 8 8 9 10 11 12 11 11 11 12 12 11 10 9 8 8 7 7 7 7 7 7 7 7 8 9 9 9 9 9 10 10 10 10 11 11 11 12 12 13 13 14 14 14
1 2 2 2 1 1 1 1 2 3 4 5 5 6 7 8 8 8 8 8 8 8 9 9 10 10 9 9 8 7 7 9 8 6 4 5 7 7 6 7 8 8 9 10 11 12 12 11 10 9 9 11 11 10 8 5 4 3 3 4 4 4 4 5 5 6 7 7 8 9 9 9 10 10 10 11 11 11 12 12 13 13 14 14 14 15
2 2 2 1 1 1 1 2 2 3 4 5 6 6 7 8 8 8 9 9 9 8 8 8 8 8 7 6 5 5 6 9 8 5 4 5 6 7 7 7 7 8 10 12 12 12 11 10 9 7 7 8 10 8 5 4 3 4 4 5 5 5 5 6 7 7 7 8 9 9 10 10 10 11 11 11 12 12 12 13 13 13 14 14 15 15
2 2 2 2 2 2 2 2 3 4 5 6 6 7 7 7 7 7 7 7 7 7 7 7 7 7 6 5 5 4 5 7 7 5 4 5 6 7 7 6 7 8 11 12 12 11 10 9 8 6 5 6 7 7 5 5 5 5 6 7 7 8 8 9 9 9 9 9 10 10 10 11 11 12 12 12 12 13 13 13 13 14 14 14 15 16
3 3 3 4 4 4 5 6 7 8 8 8 7 7 7 7 7 7 7 6 6 6 6 6 6 6 6 5 4 4 4 4 5 5 4 5 6 7 7 7 7 9 11 12 12 11 10 9 7 6 5 5 6 6 5 5 6 6 7 8 9 10 11 11 11 11 11 11 12 12 12 12 13 13 13 13 13 13 13 13 13 14 14 14 15 16
5 6 6 7 8 8 9 10 10 10 10 9 9 8 7 7 7 7 7 6 5 5 6 6 6 5 5 5 5 5 4 4 4 5 6 5 5 6 6 7 8 9 10 11 12 11 9 8 7 6 5 5 5 5 5 6 6 7 8 10 11 11 12 13 13 13 13 13 13 14 14 14 14 14 13 13 13 13 13 13 13 14 14 14 14 14
8 9 9 9 10 11 11 11 11 11 10 10 9 8 7 7 7 7 7 6 5 5 6 6 6 6 5 5 6 6 5 4 5 7 6 4 4 6 6 7 7 8 9 11 11 9 6 5 5 5 5 4 4 5 6 7 8 9 10 11 11 12 12 13 14 14 15 15 15 15 16 15 15 15 15 15 14 14 14 14 14 13 13 13 13 13
7 8 8 9 10 11 11 12 12 11 11 10 9 9 8 8 8 7 7 6 5 5 6 6 6 6 5 5 5 5 4 4 5 6 5 4 4 5 6 6 7 8 8 9 8 7 5 3 3 4 5 5 6 7 8 9 10 11 11 11 11 11 12 13 14 14 15 16 16 17 17 17 17 16 16 16 16 15 15 14 14 13 13 12 12 12
5 6 6 7 9 11 13 13 13 12 11 10 9 8 8 8 9 8 7 6 6 5 6 6 5 5 5 4 3 3 2 2 4 6 5 4 4 5 6 6 7 7 7 6 5 4 4 3 3 3 5 6 8 9 10 10 10 10 10 9 9 10 11 12 12 13 14 15 16 17 17 17 17 17 17 17 16 16 15 14 13 13 12 12 12 12
6 7 8 9 11 12 14 15 14 13 11 9 8 7 7 7 8 8 8 7 6 5 5 5 5 5 5 5 4 3 3 2 4 6 5 4 4 5 6 6 6 6 6 5 4 4 3 4 5 6 7 8 9 9 10 10 9 9 9 9 9 9 10 10 11 12 12 13 14 15 16 16 17 17 17 17 17 16 15 15 14 13 12 11 11 12
8 9 9 10 11 12 13 14 14 12 9 8 7 7 7 7 7 8 8 7 6 5 4 4 5 5 5 6 6 6 5 4 4 5 4 4 4 5 6 6 6 7 7 6 6 6 6 7 8 10 10 10 9 9 9 9 8 9 9 9 10 11 11 10 10 10 11 11 12 13 13 14 15 15 16 16 16 16 15 15 14 13 12 12 12 12
9 9 9 9 9 9 10 11 11 9 7 5 5 5 6 6 6 7 7 7 7 6 5 4 4 5 5 5 6 6 6 4 4 3 4 4 4 5 6 6 7 7 7 7 6 7 8 9 10 10 11 11 10 9 8 8 8 8 9 10 11 12 12 11 10 10 10 10 10 10 11 11 12 13 13 14 14 15 15 15 14 14 13 12 12 12
9 9 9 8 8 8 8 8 7 6 5 4 4 5 5 4 4 6 7 7 8 8 7 6 6 6 5 5 6 6 6 4 3 3 4 4 5 6 6 6 6 6 6 6 6 6 7 9 9 10 10 11 10 9 7 6 7 8 9 10 11 11 11 10 10 10 10 9 9 9 9 9 10 11 11 12 13 13 14 14 14 14 14 13 13 13
9 9 9 8 7 7 7 6 5 4 4 4 5 5 5 4 4 4 5 6 7 8 9 9 9 8 8 8 7 7 7 6 6 5 6 6 6 6 6 6 6 6 6 7 7 7 7 9 9 10 10 10 10 9 7 6 7 8 9 9 10 10 10 10 10 10 10 9 9 9 9 9 9 10 10 11 12 12 13 13 14 14 14 15 15 15
9 9 8 8 7 6 6 5 5 4 5 5 5 5 5 4 4 5 5 6 7 8 8 9 9 10 10 10 10 10 10 9 9 8 8 8 7 7 7 7 7 7 6 7 7 8 8 9 10 10 10 9 8 8 8 8 9 9 9 9 10 10 10 10 10 9 9 9 10 10 10 10 10 10 10 10 11 11 12 13 13 13 14 15 16 16
8 8 8 7 6 5 5 4 4 5 5 5 5 4 4 5 5 6 6 7 8 8 8 9 10 10 11 12 13 13 13 12 11 11 10 10 9 8 9 9 9 8 8 8 8 8 9 9 9 9 9 9 9 10 10 10 11 11 11 11 11 11 10 9 9 9 9 10 10 11 11 11 11 10 10 10 11 11 12 12 12 12 13 13 14 15
8 8 7 6 6 5 4 4 4 5 5 5 5 5 5 6 7 8 8 9 9 10 10 10 11 11 13 14 14 14 14 13 13 13 12 11 10 10 10 10 10 9 9 9 9 9 9 9 9 9 9 10 11 11 11 11 11 11 12 12 11 10 9 8 8 8 9 10 10 11 11 10 10 10 10 11 11 11 11 11 11 11 11 12 13 14
8 7 7 6 5 5 5 5 5 5 5 5 5 6 6 7 7 8 9 9 9 9 9 10 11 12 12 12 12 12 11 12 12 12 12 12 11 11 10 11 10 10 9 9 10 10 10 10 11 11 11 11 11 12 12 12 11 12 12 12 11 10 9 9 9 10 10 10 10 10 10 10 10 11 11 11 11 11 11 11 11 11 11 11 12 12
8 7 6 6 5 5 5 5 5 5 5 6 6 6 7 7 7 6 6 6 7 7 8 8 9 9 10 10 9 9 10 11 11 12 13 13 13 12 11 11 11 11 10 10 10 10 10 11 11 12 12 12 13 13 13 13 12 12 12 12 12 12 12 12 11 11 11 10 9 9 10 10 11 11 11 11 11 11 11 11 11 12 12 12 12 12
7 6 6 5 5 5 5 6 6 6 6 6 6 6 6 6 5 5 5 5 5 5 6 6 6 6 6 7 7 8 9 10 11 11 11 11 10 10 10 10 10 10 10 10 10 11 11 11 12 12 12 12 12 13 13 13 13 12 12 12 13 13 13 12 10 9 9 9 9 9 10 11 11 11 11 11 11 11 11 12 12 13 13 13 13 13
6 6 6 5 5 5 6 6 6 6 6 6 6 6 6 6 5 5 5 5 5 5 5 5 5 5 5 6 6 6 7 8 8 7 7 7 7 7 8 9 10 10 10 10 10 11 11 11 12 12 12 12 12 13 13 14 13 13 12 12 12 12 11 10 9 8 8 9 10 10 11 11 11 11 11 12 12 12 13 13 14 14 14 14 14 14
6 6 7 7 7 7 7 7 7 7 7 7 7 7 6 6 6 5 5 6 5 5 5 5 5 5 5 5 5 5 5 5 5 6 6 6 6 7 7 8 9 10 10 10 10 10 10 11 11 11 11 12 12 13 14 14 14 13 13 12 12 12 12 12 12 12 11 11 11 11 11 11 12 12 12 13 13 13 13 13 14 14 14 14 14 15
9 9 9 8 8 7 6 7 7 7 7 7 7 7 6 6 6 6 6 6 6 5 5 4 4 4 5 5 5 4 4 4 5 6 6 7 7 7 8 8 9 10 10 11 11 11 11 11 11 11 11 11 12 13 14 14 14 14 14 13 13 13 14 14 13 13 12 12 12 12 11 11 11 12 13 13 14 14 14 14 14 14 14 14 14 15
11 10 9 8 7 7 7 7 7 7 7 7 7 7 6 6 6 7 7 6 6 5 5 5 4 4 5 5 4 4 4 4 4 5 5 6 6 7 7 8 9 10 10 11 12 12 13 12 12 12 12 12 13 14 14 14 14 14 14 13 13 13 13 13 13 12 12 12 12 12 11 11 11 12 13 14 14 14 14 14 14 14 14 14 15 15
9 8 8 7 7 7 7 7 7 6 6 7 7 7 6 6 6 7 7 6 6 5 5 5 5 5 5 5 5 4 4 4 4 5 5 5 6 6 7 7 8 9 10 11 12 13 13 14 14 13 13 13 13 14 14 14 13 13 13 13 13 13 13 13 12 12 12 12 12 12 12 12 12 13 14 14 15 15 15 15 15 15 15 15 15 15
8 8 7 7 7 7 7 7 7 7 7 7 7 7 7 6 6 6 6 6 6 5 5 5 6 6 6 6 5 5 5 5 5 5 5 5 5 6 6 7 8 9 10 11 12 13 14 15 15 15 15 15 14 14 14 13 13 13 13 13 13 13 13 13 13 12 12 12 13 13 13 12 13 13 14 15 16 16 16 16 15 15 15 15 15 15
8 8 7 7 7 7 7 7 7 7 7 7 6 6 6 6 6 6 6 6 5 5 5 6 6 6 6 6 5 5 5 5 6 5 5 5 5 5 6 6 7 8 9 10 11 12 13 14 15 16 16 17 16 15 15 14 13 13 13 13 13 13 13 14 13 13 13 13 14 14 14 14 14 14 14 15 16 17 17 17 16 15 15 15 15 15
8 8 7 7 7 7 7 7 7 7 7 7 6 6 6 5 6 6 6 6 6 6 6 6 6 6 6 6 6 5 6 6 6 6 6 5 5 5 6 6 7 7 8 8 9 9 10 11 12 13 15 16 17 17 16 14 13 13 13 13 13 13 13 14 14 14 13 14 14 14 15 15 15 15 15 15 16 18 18 18 17 16 15 14 14 15
8 8 8 8 8 8 8 8 7 7 7 7 6 6 5 5 5 6 6 6 6 6 7 7 7 6 6 6 6 6 6 6 6 6 6 5 5 5 6 6 6 7 7 7 7 7 7 8 8 9 11 13 14 15 16 14 13 13 13 13 13 13 13 13 14 14 14 14 14 14 14 14 15 14 14 14 16 17 18 18 17 16 14 14 13 14
Wind_Direction
194 189 199 181 159 293 264 237 237 260 288 290 288 287 292 298 303 305 302 301 301 300 298 295 293 293 294 293 292 294 297 300 304 307 310 312 315 317 318 320 321 323 325 327 329 331 334 336 339 341 342 343 343 343 341 338 335 329 324 319 315 311 307 305 304 303 303 303 304 302 297 291 289 292 301 316 329 332 330 330 326 319 314 313 311 306
186 188 186 175 148 110 278 247 246 256 276 285 287 289 292 303 312 313 311 316 317 316 312 307 303 303 304 299 294 292 297 302 307 312 318 324 330 334 337 340 341 343 346 349 350 350 350 350 350 348 347 346 344 342 339 336 332 328 324 319 315 312 309 305 303 302 305 307 309 307 303 297 296 299 304 313 322 325 327 326 323 317 311 308 307 304
160 160 167 160 140 120 261 269 264 265 279 291 294 296 303 316 319 317 327 353 360 354 349 343 340 342 339 324 309 300 306 320 333 342 349 0 9 14 13 11 10 7 4 4 3 358 354 352 349 346 343 341 339 336 333 330 328 325 322 316 311 308 304 299 294 292 294 296 300 302 303 302 304 307 309 312 314 316 317 319 317 311 305 305 305 304
152 145 148 156 157 198 241 280 292 293 296 306 316 324 336 351 356 28 70 65 51 38 35 34 31 27 20 356 334 323 332 357 16 23 26 33 32 28 20 14 8 2 358 352 348 344 342 340 338 335 332 330 328 325 321 319 318 317 317 313 306 301 298 292 288 284 282 285 289 292 297 297 298 300 302 302 305 308 309 310 310 309 307 305 303 302
148 147 151 147 145 178 229 285 348 353 1 22 36 47 55 61 66 71 74 67 53 45 43 41 37 31 25 5 347 342 348 2 17 30 33 36 28 14 3 357 349 343 338 333 329 327 325 324 322 320 318 317 313 310 307 306 306 307 309 307 303 301 301 298 293 289 288 286 283 283 286 287 289 291 292 293 296 299 301 302 302 302 300 298 295 294
134 139 150 142 135 135 141 104 78 72 67 67 69 70 73 75 75 73 67 52 39 31 26 24 21 15 7 344 342 348 352 349 343 334 326 317 315 321 326 323 317 314 313 312 311 311 312 311 310 308 307 305 303 300 298 296 295 297 299 298 295 293 292 290 289 289 290 288 285 282 282 283 285 288 290 291 292 294 295 297 298 297 295 293 291 288
130 132 135 127 124 120 107 98 95 91 83 80 84 89 88 83 79 76 67 58 42 24 7 359 354 352 345 334 338 348 354 349 342 333 326 317 306 297 295 297 298 299 300 300 301 303 304 304 303 302 301 299 297 295 293 291 288 287 288 285 283 282 280 278 278 280 284 286 287 287 288 288 288 288 290 291 291 292 292 293 292 292 291 289 287 285
133 133 129 120 114 107 99 94 97 102 98 92 96 111 109 97 88 74 54 32 22 13 359 346 342 342 340 334 341 348 352 349 347 344 340 333 318 303 294 293 294 295 296 296 297 299 299 299 299 298 298 298 296 293 290 287 284 281 280 279 277 276 273 272 272 274 278 282 285 288 289 289 289 289 289 290 290 290 290 287 286 285 285 283 281 280
132 133 131 125 118 113 111 104 103 105 106 88 56 41 44 53 148 340 9 21 359 346 352 348 342 342 346 332 330 328 319 312 313 316 315 311 306 301 297 296 296 296 296 296 297 297 297 296 296 296 296 296 295 293 289 285 280 278 275 273 273 272 272 270 269 271 273 276 280 283 285 286 286 288 289 289 288 287 285 282 280 280 279 278 277 275
124 124 123 119 115 116 117 115 109 109 110 93 71 53 32 354 331 305 266 33 14 356 345 341 337 338 338 329 322 316 310 304 300 297 294 293 293 295 296 297 298 297 297 297 296 296 295 295 295 295 294 294 293 290 287 282 278 273 270 269 268 268 268 267 267 269 271 273 276 278 281 283 284 285 286 285 283 281 279 278 276 275 274 274 273 271
119 117 117 116 116 115 114 113 116 117 111 116 120 105 61 26 354 327 304 306 351 8 356 330 315 315 320 323 320 314 310 309 306 302 300 299 299 298 298 298 298 298 298 298 297 297 296 296 295 294 294 292 290 287 283 279 275 271 267 265 264 263 264 264 266 267 269 272 274 277 279 280 281 282 281 279 277 275 274 272 271 271 270 269 269 268
123 122 122 124 126 125 123 123 121 119 123 172 178 146 82 58 39 353 322 317 330 345 344 330 310 301 301 303 305 306 307 307 306 304 304 304 304 303 302 301 301 301 301 301 301 301 300 299 297 296 294 291 287 283 281 279 276 273 270 267 264 263 264 265 266 268 270 272 274 276 278 278 278 276 275 273 272 271 269 268 267 268 268 267 267 268
128 132 132 134 136 137 136 144 143 144 147 182 221 59 55 39 33 5 323 312 320 329 324 317 306 298 297 297 298 300 302 303 304 304 305 305 305 305 304 305 305 306 306 305 305 304 303 302 302 300 297 293 289 285 284 283 282 279 277 274 272 270 269 269 271 272 273 274 275 276 276 274 273 271 270 268 267 266 265 265 266 267 267 267 266 266
137 143 147 146 144 141 142 151 156 145 109 70 51 43 37 16 4 342 308 298 307 317 313 304 297 290 289 292 294 295 299 304 307 307 306 304 304 304 305 306 308 309 309 308 306 304 303 304 305 303 302 300 296 292 289 287 286 286 286 286 285 282 280 279 278 277 276 275 275 274 273 271 270 268 267 265 265 265 264 265 266 267 268 268 267 266
143 153 157 157 153 145 138 145 146 114 86 79 71 50 13 355 343 325 305 300 306 313 311 303 296 287 274 280 289 296 302 311 315 312 308 305 303 303 304 308 312 314 313 311 307 304 303 305 304 302 302 300 295 288 283 281 282 285 287 287 287 285 283 281 279 277 275 274 274 274 272 271 269 268 267 265 265 265 265 266 266 267 268 268 268 268
140 157 164 164 159 149 131 121 119 107 93 88 77 46 354 328 325 321 313 307 308 310 309 307 302 295 278 272 287 301 311 321 321 316 311 306 304 303 304 310 315 317 315 312 308 305 305 305 302 299 297 291 285 281 278 277 277 276 277 278 279 280 280 278 276 274 271 271 271 271 272 271 270 269 268 267 267 266 266 267 267 267 268 268 269 269
142 166 179 184 175 159 135 125 122 116 114 106 68 7 336 316 315 318 314 309 308 307 307 308 307 302 291 286 302 315 320 326 325 318 312 306 302 302 305 313 317 318 314 311 307 303 303 301 299 295 291 287 284 283 281 278 275 272 271 271 272 273 274 275 274 272 271 269 268 269 269 271 271 271 269 269 268 268 267 267 267 268 268 269 270 270
161 179 195 197 188 170 153 146 159 178 195 229 274 301 307 306 307 309 307 305 305 306 306 305 301 297 295 293 309 325 322 327 327 320 311 305 300 301 307 315 320 321 314 308 304 301 300 297 295 292 290 287 285 284 281 279 277 275 273 271 270 269 269 269 271 272 272 272 271 269 268 269 269 270 271 270 269 269 268 268 268 269 269 270 271 271
169 186 198 198 188 179 177 179 181 191 221 264 291 298 298 299 300 300 298 298 299 303 305 302 295 289 287 288 300 316 319 326 326 319 309 304 301 301 305 316 322 321 311 304 300 299 299 299 299 298 295 291 287 283 280 278 277 277 276 275 274 272 271 269 269 269 271 273 273 272 271 269 268 269 271 270 270 269 269 269 269 269 270 270 271 271
177 186 191 189 189 191 191 189 192 211 259 292 302 304 301 300 300 298 295 295 296 298 297 294 289 286 285 287 295 308 318 325 325 317 308 303 300 299 301 314 320 319 310 305 302 301 303 306 307 306 303 296 289 283 279 276 276 276 276 276 276 276 275 273 271 270 270 271 272 273 272 270 269 269 270 269 268 268 268 268 269 270 271 271 271 272
190 186 179 184 197 205 200 193 203 258 282 298 307 306 302 302 300 297 295 296 296 295 291 286 282 283 287 290 295 302 308 316 320 316 309 304 300 298 302 314 320 319 312 309 307 307 309 311 312 311 306 299 291 284 279 276 275 275 275 276 276 277 277 276 275 273 271 270 271 271 271 270 269 268 267 266 266 267 267 268 269 270 272 272 273 273
212 195 177 179 194 205 209 229 264 292 296 307 306 300 295 294 294 292 293 293 293 291 289 285 285 286 289 289 290 294 298 306 312 311 309 303 299 298 308 318 322 320 312 311 311 312 313 313 313 311 307 300 292 286 280 277 276 276 277 279 280 280 281 281 280 277 273 271 270 269 269 267 266 264 263 263 265 266 267 269 270 272 273 274 274 274
198 184 171 170 177 191 217 260 287 296 299 303 298 288 282 281 281 283 285 285 284 284 285 286 287 286 285 283 282 284 291 301 307 309 305 298 298 302 314 322 322 318 311 311 312 313 313 312 311 311 308 302 295 289 283 279 277 280 284 286 288 289 288 286 284 278 272 269 266 263 261 259 258 258 260 263 265 267 269 271 273 274 275 275 275 274
175 166 159 160 179 204 227 274 299 307 308 301 293 285 280 277 275 276 277 277 277 278 281 285 286 284 280 277 275 272 276 293 304 310 300 293 295 301 312 320 320 316 312 312 314 315 313 310 309 309 306 302 299 294 285 275 269 273 279 276 272 272 272 269 266 261 258 255 251 250 250 252 255 258 260 264 267 270 272 273 274 275 275 276 275 275
165 163 160 168 202 230 254 290 302 309 314 310 302 294 288 283 279 277 276 274 274 274 278 280 281 280 277 275 273 266 261 285 297 304 292 292 294 298 305 315 317 314 312 313 316 316 313 309 305 303 301 300 299 295 279 255 241 245 249 248 245 245 244 242 241 241 242 243 244 246 250 254 258 261 264 266 269 271 273 275 276 276 276 276 275 275
176 172 172 191 214 232 249 268 273 279 290 302 304 300 294 288 282 278 274 270 268 268 271 273 274 275 276 276 274 267 260 280 291 295 291 293 295 298 303 311 317 315 312 313 316 315 310 305 302 299 294 294 297 294 272 248 239 244 247 249 248 246 245 243 241 242 244 247 250 253 256 258 260 263 266 269 271 273 274 275 276 276 277 277 276 275
192 196 204 216 226 237 250 258 262 268 275 282 288 292 291 285 279 273 268 265 263 264 269 271 275 278 280 278 277 272 265 272 280 288 292 293 294 296 302 312 317 317 314 313 313 310 304 299 296 293 288 287 293 293 277 261 257 259 262 263 261 258 257 254 253 252 252 253 256 258 261 262 264 266 268 270 272 273 274 275 275 276 277 278 277 276
221 227 233 241 248 255 262 268 272 276 280 282 280 278 277 274 269 264 262 263 265 266 264 267 273 279 282 283 283 283 277 266 263 276 294 296 289 291 301 313 318 319 317 315 312 309 301 293 291 290 286 286 291 295 291 287 284 283 283 281 278 274 271 268 265 263 262 261 261 262 263 265 267 268 269 270 271 271 272 273 274 276 278 278 278 277
248 254 259 265 269 272 276 280 285 287 287 287 284 276 263 256 255 256 257 260 263 262 259 261 265 272 279 284 286 283 276 256 257 274 300 299 289 290 303 314 321 324 324 321 317 312 298 286 291 299 299 302 306 307 305 306 306 303 300 296 291 285 280 276 273 270 268 267 267 267 267 268 269 269 269 269 269 269 269 270 272 275 277 277 276 275
263 269 275 280 283 287 292 297 299 299 295 290 284 274 261 246 243 247 253 256 257 256 256 259 263 267 276 284 286 282 271 246 256 278 306 304 294 299 311 317 321 326 330 328 325 320 308 290 293 309 320 322 318 312 307 306 307 307 306 302 296 290 283 279 275 273 272 271 270 270 271 271 271 270 269 269 268 268 268 269 270 272 275 275 274 272
267 276 282 287 291 297 303 307 308 306 300 292 281 270 259 246 239 238 243 245 246 247 252 257 261 264 271 277 281 281 278 257 277 292 311 302 295 302 312 314 315 320 328 332 330 323 317 309 307 315 322 319 313 307 304 304 306 308 308 306 302 294 287 281 278 276 274 274 273 273 273 273 272 272 271 270 269 268 267 267 267 269 270 271 271 270
273 280 285 289 293 300 306 310 311 309 301 289 275 262 252 245 241 238 239 237 237 241 248 253 258 260 261 261 263 271 284 288 298 303 311 299 293 297 305 307 308 311 316 319 312 302 302 305 308 311 313 310 307 304 303 303 305 308 310 311 308 302 296 291 286 282 280 278 276 276 275 274 273 272 271 270 269 267 266 264 264 265 266 268 269 270
278 285 288 291 294 300 306 311 312 307 297 281 264 252 245 243 242 242 239 235 232 233 241 250 257 260 259 258 258 262 271 277 292 302 307 301 295 295 299 301 303 305 306 302 292 281 279 287 297 303 306 306 304 303 301 299 300 303 307 309 309 309 308 305 300 295 290 285 282 280 278 277 275 274 272 270 269 267 266 264 263 262 262 264 267 270
284 287 289 290 292 296 301 307 307 301 286 265 247 239 238 237 238 240 241 239 235 232 236 245 255 260 264 264 262 262 264 268 278 292 301 300 295 293 295 296 298 300 302 298 292 285 280 283 290 298 303 305 304 302 298 296 296 300 306 309 311 313 314 314 312 308 302 298 294 290 287 284 281 278 275 273 270 269 267 265 263 261 260 261 264 268
285 286 286 287 289 293 297 297 294 284 261 236 225 223 223 222 229 239 245 247 247 245 244 246 249 254 259 264 265 265 264 267 276 288 293 298 295 293 292 290 290 294 296 294 292 291 288 287 290 297 302 305 305 302 298 296 298 303 307 311 312 312 313 312 311 310 308 307 305 302 297 292 288 284 281 277 274 271 269 266 263 261 260 260 261 264
283 284 285 285 287 290 292 288 274 253 229 218 217 220 219 220 228 240 249 255 257 257 256 256 255 254 254 255 257 260 263 270 278 284 286 287 286 286 285 282 283 286 289 288 288 288 290 291 294 296 298 300 301 302 302 305 308 308 308 308 307 305 305 305 305 304 303 302 302 301 300 297 294 290 286 283 280 277 274 270 267 265 263 261 260 260
281 282 282 283 283 284 283 276 255 231 217 214 220 226 227 231 237 244 252 259 262 265 266 266 265 263 261 258 257 258 261 267 272 274 276 275 275 274 274 274 276 277 278 279 282 286 290 293 295 296 295 293 294 299 305 309 311 309 306 305 304 301 299 299 300 298 295 294 295 297 299 299 298 295 291 289 287 285 282 279 276 273 271 268 266 263
280 280 281 281 279 276 269 256 238 223 217 218 223 230 234 240 245 249 255 260 264 267 268 268 268 266 265 264 263 262 263 265 266 267 268 268 266 265 266 269 271 271 269 271 276 281 286 289 293 295 294 292 291 294 299 305 307 306 304 304 303 300 297 296 293 291 290 291 292 294 296 297 298 297 294 293 293 292 291 290 287 283 281 279 277 274
276 277 278 277 274 266 254 241 230 225 223 226 232 239 245 251 255 257 259 262 265 268 269 269 269 269 270 270 269 269 267 266 266 266 267 266 263 260 260 264 267 267 266 267 269 272 275 278 282 286 290 293 294 295 297 299 301 302 304 306 304 300 296 294 292 290 289 289 290 290 291 292 293 293 291 292 292 293 292 292 292 290 289 289 286 283
273 273 273 271 267 258 247 238 232 229 230 235 243 250 255 259 261 263 265 268 271 273 274 276 277 278 279 279 278 275 273 272 271 271 270 269 264 259 257 259 262 264 265 265 265 266 268 270 273 277 281 286 290 293 295 295 296 299 303 304 303 300 298 297 295 292 289 286 285 285 286 288 289 288 288 288 287 287 286 287 287 287 286 285 284 284
269 269 269 267 261 253 244 239 236 235 236 240 247 254 260 264 267 271 275 278 281 282 283 285 285 284 284 284 283 280 278 279 278 274 270 269 267 262 254 254 256 260 263 264 264 264 263 266 270 274 277 280 284 288 289 289 291 294 296 295 295 295 296 296 294 291 287 284 282 283 285 287 288 288 287 285 283 282 281 281 282 281 281 279 278 277
264 263 264 263 259 253 248 243 239 238 239 244 248 252 258 263 266 268 271 274 274 278 282 284 281 277 274 272 273 275 276 278 278 276 272 268 264 258 252 250 251 254 258 261 263 262 262 263 266 270 274 278 282 285 286 287 289 289 289 289 291 295 297 295 293 290 286 285 285 287 288 288 288 287 286 285 283 281 281 279 279 278 276 275 273 271
259 258 260 261 261 257 251 246 241 239 238 239 240 245 251 256 259 261 266 271 271 272 275 276 274 272 271 271 267 265 268 275 278 276 271 267 259 253 250 250 251 252 254 258 261 263 264 264 264 267 270 274 277 280 283 286 288 287 286 286 289 293 294 294 294 293 290 288 288 288 288 287 287 286 286 285 284 283 283 282 280 278 274 272 270 268
260 261 262 264 264 262 256 248 241 237 236 238 242 245 249 254 256 259 263 266 269 269 269 269 269 271 271 269 267 264 259 259 264 267 267 267 262 256 253 254 255 255 253 254 258 263 267 268 266 266 268 271 274 276 279 282 285 286 285 285 284 283 282 285 290 292 290 288 286 285 285 285 285 286 286 285 285 284 283 282 280 278 274 272 270 268
262 266 268 270 269 264 255 246 239 236 237 240 244 246 247 250 251 254 257 262 265 264 261 257 259 262 260 261 261 261 256 251 251 255 261 266 268 266 261 257 255 254 253 254 256 259 264 268 270 272 273 273 273 273 275 278 281 283 284 284 282 280 278 281 284 286 286 285 284 283 283 283 284 286 285 285 284 284 282 281 279 277 275 272 270 268
269 271 271 269 264 256 247 241 236 235 237 240 243 244 245 246 249 252 254 257 258 257 253 249 247 250 255 258 260 261 259 257 251 249 251 256 262 265 263 261 259 257 256 257 259 260 262 264 268 272 275 276 274 272 271 273 277 281 283 284 284 283 282 282 282 282 282 282 283 283 283 283 283 283 282 283 283 283 282 280 278 276 275 274 272 270
267 266 263 258 252 247 242 237 234 233 235 238 241 243 244 246 248 251 252 251 249 247 246 244 242 244 249 254 258 260 260 262 260 257 255 254 254 254 254 258 260 261 262 262 263 263 262 263 265 268 270 272 273 273 273 273 274 277 280 283 285 285 284 283 282 282 282 281 281 282 283 283 283 282 282 283 284 284 283 281 279 277 275 273 272 270
261 257 253 249 245 240 236 233 231 231 235 238 242 244 245 243 244 244 245 243 241 240 240 240 241 244 249 253 255 256 258 260 262 261 261 259 257 255 257 260 264 266 267 267 267 267 266 266 265 263 262 263 266 270 273 273 273 274 277 281 283 283 283 282 283 283 283 281 280 280 281 280 280 281 283 285 285 284 283 282 280 278 275 273 271 270
255 250 247 245 241 238 234 230 229 231 235 239 241 243 244 241 240 238 237 235 234 235 236 238 241 246 250 252 254 254 256 258 260 260 261 261 260 261 264 269 274 276 276 275 275 274 272 270 266 261 257 255 257 261 266 269 271 272 274 276 278 279 280 282 283 284 284 283 282 281 280 278 278 280 282 283 284 284 284 283 282 279 276 273 271 269
252 248 244 241 238 237 234 231 230 231 233 235 237 238 240 239 238 235 232 231 232 234 235 237 240 244 249 251 252 252 253 255 257 258 259 261 263 266 271 275 279 282 284 284 283 280 278 277 274 267 259 253 251 252 256 262 267 270 272 272 273 274 277 279 282 284 285 284 283 282 280 279 279 279 279 279 281 282 283 283 282 280 278 275 272 270
253 248 243 240 238 237 235 232 230 230 231 232 233 235 236 237 235 232 230 230 231 232 234 235 237 240 244 247 249 250 251 254 256 258 258 261 266 269 274 278 283 287 290 290 289 289 289 289 287 282 272 256 249 248 249 253 260 268 271 272 272 273 275 277 280 283 283 282 282 281 280 279 278 278 276 276 278 281 283 283 283 281 280 278 276 274
Height
833 833 832 832 833 832 832 832 832 832 832 832 832 832 832 832 832 832 832 832 832 832 832 832 832 832 832 831 831 831 830 830 830 830 829 829 829 829 829 828 828 828 828 828 827 827 827 827 827 827 827 826 826 826 826 827 827 827 827 827 827 828 828 828 828 828 828 827 827 827 826 826 826 826 826 826 826 826 827 827 827 827 827 827 827 828
832 832 832 832 832 832 832 832 832 832 832 832 832 832 832 832 832 832 832 832 832 832 832 832 832 832 832 831 831 830 830 830 830 829 829 829 829 829 828 828 828 828 828 828 827 827 827 827 827 827 827 827 827 827 827 827 827 827 827 827 827 827 827 827 827 827 827 826 826 826 825 826 826 826 826 826 826 826 827 827 826 826 827 827 827 827
832 832 832 832 832 832 832 832 832 831 832 832 832 832 832 832 832 832 832 832 832 832 832 832 832 832 832 831 830 830 830 830 830 829 829 829 829 829 828 828 828 828 828 828 827 827 827 827 827 827 827 827 827 827 827 827 827 826 826 826 826 826 826 826 826 826 825 825 825 825 825 825 825 826 826 826 826 826 826 826 826 826 826 826 826 826
832 832 832 832 832 832 832 832 831 831 831 831 831 831 831 832 832 832 832 832 833 833 832 832 832 832 832 831 831 830 830 830 830 829 829 829 829 829 828 828 828 828 828 827 827 827 827 827 827 827 827 827 826 826 826 826 826 826 826 826 826 825 825 825 825 825 825 825 825 825 825 825 825 825 826 826 826 826 826 826 826 826 826 826 826 826
832 832 832 832 832 832 831 831 831 831 831 831 831 832 832 832 832 832 832 832 833 833 833 833 832 832 832 831 831 830 830 830 829 829 829 829 829 828 828 828 828 828 827 827 827 827 826 826 826 826 826 826 826 826 826 826 826 826 826 826 826 825 825 825 825 825 825 825 825 825 825 825 825 825 825 825 825 825 825 825 825 825 825 825 825 826
831 831 831 831 831 831 831 831 831 831 832 832 832 832 832 832 832 833 833 833 833 833 833 833 832 832 832 832 831 830 830 830 829 829 829 829 828 828 828 828 827 827 827 827 826 826 826 826 826 826 826 825 825 825 825 825 825 825 826 826 825 825 825 825 825 825 825 825 825 825 825 825 825 825 825 825 825 825 825 825 825 825 825 825 825 825
831 831 831 831 831 831 831 831 832 832 832 833 833 833 833 833 833 833 833 833 833 833 833 833 832 832 832 832 831 831 830 830 829 829 829 829 828 828 828 827 827 827 826 826 826 826 825 825 825 825 825 825 825 825 825 825 825 825 825 825 825 825 825 825 825 824 824 824 824 824 824 824 824 824 824 824 824 824 824 824 824 824 824 825 825 825
831 832 832 832 832 832 832 832 832 832 833 833 833 833 833 833 833 833 833 833 833 833 833 833 833 832 832 832 831 831 831 831 830 830 829 829 828 828 827 827 827 826 826 825 825 825 825 824 824 824 824 824 824 824 824 824 824 824 824 824 824 824 824 824 824 824 824 824 824 824 824 824 824 824 824 824 824 824 824 824 824 824 824 824 824 824
831 831 832 832 832 832 832 833 833 833 833 833 833 833 833 833 833 833 833 833 833 833 833 833 833 833 832 832 831 831 831 830 830 830 829 829 828 828 827 826 826 826 825 825 824 824 824 824 823 823 823 823 823 822 822 822 822 823 823 823 823 823 823 823 823 823 823 823 823 823 823 823 823 823 823 823 823 823 823 824 824 824 824 824 824 824
831 831 832 832 832 832 833 833 833 833 833 833 833 833 833 833 833 833 833 833 833 833 833 833 833 832 832 831 831 831 830 830 829 829 829 828 827 827 826 826 825 825 824 824 824 823 823 823 822 822 822 822 821 821 821 821 821 821 821 821 822 822 822 822 822 822 822 822 822 822 822 823 823 823 823 823 823 823 823 823 823 823 823 823 824 824
831 831 831 832 832 832 832 833 833 833 833 833 833 833 833 833 833 833 833 833 833 833 833 832 832 832 832 831 831 830 830 829 829 828 828 827 826 826 825 825 824 824 824 823 823 822 822 821 821 821 821 820 820 820 820 819 819 820 820 820 820 820 820 821 821 821 821 821 821 822 822 822 822 822 822 822 822 822 822 822 822 823 823 823 823 823
831 831 832 832 832 832 833 833 833 833 833 833 833 833 833 833 833 834 833 833 833 833 833 832 832 831 831 831 830 830 829 829 829 828 827 827 826 825 825 824 824 823 823 822 821 821 820 820 819 819 819 819 819 819 819 818 818 819 819 819 819 819 819 819 820 820 820 820 821 821 821 821 821 821 821 821 821 822 822 822 822 822 822 822 822 822
831 831 832 832 832 832 833 833 833 833 833 833 833 833 833 833 833 834 834 833 833 833 833 832 832 831 830 830 830 829 829 829 828 828 827 826 826 825 824 824 823 823 822 821 821 820 819 819 818 818 818 818 818 817 817 817 818 818 818 818 818 818 819 819 819 819 819 819 820 820 820 820 820 820 821 821 821 821 821 821 821 821 821 821 821 822
831 831 831 832 832 832 832 833 833 833 833 833 833 833 833 833 834 834 834 833 833 833 832 832 832 831 830 829 829 829 828 828 827 827 826 826 825 824 824 823 822 822 821 820 820 819 819 818 817 817 817 817 817 817 817 817 817 817 817 817 817 818 818 818 818 818 819 819 819 819 819 819 819 819 820 820 820 820 820 820 820 820 820 820 821 821
831 831 831 831 832 832 832 833 833 833 833 833 833 833 834 834 834 834 833 833 833 832 832 832 831 830 830 829 828 828 828 827 827 827 826 825 825 824 823 822 821 821 820 820 819 819 818 817 817 817 817 816 816 816 816 816 816 816 816 817 817 817 817 817 817 818 818 818 818 818 819 819 819 819 819 819 819 819 819 819 819 819 820 820 820 820
831 831 831 831 832 832 832 833 833 833 833 833 833 834 834 834 834 834 833 833 833 832 832 831 831 830 829 828 828 827 827 827 827 826 825 825 824 824 822 822 821 820 820 819 819 818 818 817 817 817 816 816 815 815 815 815 815 815 815 816 816 816 816 816 816 817 817 817 817 817 818 818 818 818 818 818 818 818 819 819 819 819 819 819 819 819
831 831 831 831 832 832 832 833 833 833 833 833 833 834 834 834 834 834 833 833 833 832 832 831 831 830 829 828 827 827 827 827 826 826 825 824 824 823 822 821 820 820 819 819 818 818 817 817 817 816 816 815 815 814 814 814 814 814 814 815 815 815 815 815 815 815 816 816 816 816 816 817 817 817 817 817 817 817 817 818 818 818 818 818 818 818
831 831 831 832 832 832 832 833 833 833 833 833 833 833 833 833 833 833 833 833 833 832 832 831 831 830 829 829 828 827 826 826 826 825 824 824 823 822 821 820 820 819 819 819 818 818 817 816 816 815 815 814 814 814 814 814 814 814 814 814 814 814 814 814 814 814 815 815 815 815 815 816 816 816 816 816 816 816 816 816 816 817 817 817 817 817
831 832 832 832 832 832 832 833 833 833 833 833 833 833 833 833 833 833 833 833 832 832 832 831 831 830 829 829 828 828 826 826 825 825 824 823 823 822 821 820 819 819 819 818 818 817 816 816 815 814 814 814 813 813 813 813 813 813 813 813 813 813 813 813 813 814 814 814 814 814 814 814 815 815 815 815 815 815 815 815 815 815 815 815 815 815
831 831 832 832 832 832 832 832 833 833 833 833 833 833 833 833 833 833 832 832 832 832 832 831 831 830 829 829 828 827 827 826 825 825 824 823 822 821 820 820 819 819 818 818 817 816 816 815 814 814 813 813 812 812 812 812 812 812 812 812 812 812 812 812 812 813 813 813 813 813 813 814 814 814 814 814 814 814 814 814 814 814 814 814 814 814
831 831 831 832 832 832 832 832 832 833 833 832 833 833 833 833 832 832 832 832 832 831 831 831 830 829 829 829 828 827 826 826 825 825 824 823 822 821 820 819 819 818 818 817 817 816 815 814 814 813 812 812 811 811 811 811 811 811 811 811 811 811 811 811 811 812 812 812 812 812 813 813 813 813 813 813 813 813 813 813 813 813 813 813 813 813
831 831 831 832 832 832 832 832 832 832 832 832 832 832 832 832 832 832 832 831 831 831 830 830 829 829 829 828 827 827 826 825 825 825 824 823 821 820 820 819 819 818 817 817 816 815 815 814 813 812 811 811 810 810 810 810 810 810 810 810 810 810 810 811 811 811 811 811 811 812 812 812 812 812 812 812 812 812 812 812 812 812 812 812 812 811
831 831 831 831 831 832 832 832 832 832 832 832 832 832 832 832 832 831 831 831 831 830 830 829 829 828 828 827 826 826 825 825 824 824 824 823 821 820 820 819 818 818 817 816 816 815 814 813 812 812 811 810 809 809 809 809 809 809 809 810 810 810 810 810 810 810 811 811 811 811 811 811 811 811 811 811 811 811 811 811 810 810 810 810 810 810
831 831 831 831 831 831 831 832 832 832 831 831 831 831 831 831 831 831 830 830 830 829 829 829 828 827 827 826 826 825 824 824 824 824 824 823 821 820 819 819 818 817 817 816 815 814 813 812 812 811 810 809 808 808 808 809 809 809 809 809 809 809 809 809 810 810 809 810 810 809 809 809 809 809 809 809 809 809 809 809 809 809 809 809 809 809
831 831 831 831 830 830 831 831 831 831 831 831 831 830 830 830 830 829 829 829 829 829 829 828 827 826 826 825 825 825 824 824 823 824 823 822 821 820 819 819 818 817 816 815 814 814 813 812 811 811 810 809 808 808 808 808 808 808 808 808 808 808 808 808 808 808 808 808 808 808 808 808 808 808 808 808 808 808 808 808 808 808 808 808 807 807
830 830 830 830 830 830 830 830 830 830 830 830 830 830 830 829 829 829 829 828 828 828 828 827 826 825 825 825 824 824 824 823 823 823 823 822 821 820 819 819 818 817 816 814 814 813 812 812 811 810 810 809 808 807 807 807 807 807 807 807 807 807 807 807 807 807 807 807 807 807 807 807 807 807 807 807 807 807 807 807 807 807 806 806 806 805
829 829 829 829 829 829 829 829 829 829 829 829 829 829 829 829 829 828 828 828 827 827 827 826 825 824 824 824 824 824 823 823 822 822 822 822 821 820 819 818 818 817 815 814 813 812 812 811 810 810 809 809 808 807 807 807 807 807 806 806 806 806 806 806 806 806 806 806 806 806 806 806 806 806 806 806 806 806 806 805 805 805 805 805 804 804
829 829 829 828 828 828 828 828 828 828 828 828 828 828 828 828 828 828 827 827 827 827 826 826 825 824 824 823 823 823 823 823 822 821 821 821 821 820 819 818 818 817 815 814 813 811 811 810 810 809 809 808 808 808 807 807 806 806 806 806 805 805 805 805 805 805 805 805 805 805 805 805 804 804 804 804 804 804 804 804 804 804 804 803 803 802
828 828 828 828 828 828 827 827 827 827 827 827 826 826 827 827 827 827 826 826 826 826 825 825 824 824 824 823 823 823 822 822 821 820 821 821 820 819 819 818 818 817 816 814 812 811 810 810 809 809 808 808 808 808 807 807 806 806 806 805 805 804 804 804 804 804 804 804 804 804 803 803 803 803 803 803 803 803 803 802 802 802 802 802 802 801
828 828 828 827 827 827 827 826 826 826 825 825 825 825 825 825 825 825 825 825 825 825 825 824 824 824 823 823 822 822 821 821 820 820 820 820 820 819 819 818 818 817 816 815 813 811 810 809 809 809 808 808 808 808 807 807 806 805 805 804 804 804 804 803 803 803 803 802 802 802 802 802 802 801 801 801 801 801 801 801 801 801 801 800 800 800
827 827 827 827 826 826 825 825 825 824 824 824 824 824 824 824 824 824 824 824 824 824 824 824 823 823 823 823 822 821 820 820 820 819 820 820 819 819 818 818 818 817 817 816 815 813 811 809 809 809 809 808 808 807 807 806 805 805 804 804 804 803 803 802 802 802 801 801 801 801 800 800 800 800 799 799 799 799 799 799 799 799 799 799 799 798
827 826 826 826 825 825 824 824 824 823 823 823 822 822 822 822 822 823 823 823 823 823 823 823 823 823 823 822 822 821 820 820 820 819 819 819 819 819 818 818 817 817 817 817 816 815 813 811 809 809 809 808 808 807 806 805 805 804 804 803 803 802 802 801 801 801 800 800 800 799 799 799 799 798 798 798 798 798 798 798 798 798 798 798 797 797
826 825 825 825 824 824 823 823 822 822 822 822 821 821 821 821 821 822 822 822 822 822 823 822 822 822 822 822 821 821 820 820 820 819 819 819 819 818 818 818 817 817 816 816 816 816 814 812 810 809 809 808 807 806 806 805 804 804 803 803 802 802 801 801 800 800 799 799 799 798 798 798 797 797 797 796 796 796 796 796 796 796 796 796 796 795
825 824 824 824 823 823 822 822 821 821 821 821 821 821 821 821 821 821 821 821 821 821 822 822 822 821 821 821 820 820 820 820 819 819 819 819 818 818 817 817 817 816 816 815 815 814 814 813 811 810 809 807 807 806 805 805 804 803 803 802 802 801 800 800 799 799 799 798 798 797 797 797 796 796 795 795 795 795 794 794 794 794 794 794 794 794
824 824 823 823 823 822 822 821 821 820 820 820 820 820 820 820 820 820 820 820 820 820 820 820 820 820 820 820 820 819 819 819 819 819 818 818 818 817 817 816 816 816 816 815 814 814 813 812 811 810 809 807 806 805 805 804 804 803 802 802 801 800 800 799 799 799 798 798 797 797 796 796 795 795 794 794 794 794 793 793 793 793 793 793 793 793
823 823 822 822 821 821 821 820 820 820 820 820 820 820 819 820 820 820 819 819 819 819 819 819 819 819 819 819 819 819 818 818 818 818 817 817 817 817 816 816 815 815 815 814 814 813 813 811 810 810 809 808 806 805 804 804 804 803 802 801 801 800 799 799 799 798 797 797 797 796 796 795 794 794 794 793 793 792 792 792 792 791 791 791 791 791
822 822 821 821 820 820 820 819 819 819 819 819 819 819 819 819 819 819 819 819 818 818 818 818 818 818 818 817 817 817 817 817 817 816 816 816 816 816 815 815 814 814 814 814 814 813 812 811 810 809 809 808 806 805 804 804 803 802 802 801 800 800 799 799 798 797 797 796 796 795 795 794 794 793 793 792 792 791 791 790 790 790 790 789 789 789
821 821 820 820 819 819 819 819 819 819 819 819 819 819 818 818 818 818 818 818 817 817 817 817 817 816 816 816 816 815 815 815 815 815 815 815 815 815 814 814 814 814 814 813 813 812 812 811 810 809 808 807 806 805 804 804 803 802 801 800 800 799 798 798 797 797 796 796 795 794 794 794 793 793 792 791 791 790 790 789 789 789 789 788 788 787
820 820 819 819 819 818 818 818 818 818 818 818 818 818 817 817 817 817 817 817 816 816 816 816 815 815 814 814 814 814 814 814 813 813 813 813 813 814 814 813 813 813 812 812 812 812 811 811 810 809 808 806 805 804 804 803 802 801 800 799 799 798 798 797 797 796 796 795 794 794 793 793 792 792 791 791 790 790 789 789 788 788 788 787 787 786
819 819 818 818 818 817 817 817 817 817 817 817 817 816 816 816 816 816 816 815 815 815 815 814 814 814 813 813 813 813 812 812 812 812 812 812 812 812 812 812 812 812 811 811 811 811 810 810 809 808 808 806 805 804 803 803 802 801 800 799 798 797 797 797 796 796 795 794 794 793 793 792 792 791 790 790 789 789 789 788 788 787 787 786 786 785
818 818 817 817 817 816 816 816 816 816 816 816 816 816 815 815 815 815 815 814 814 814 814 814 813 813 813 812 812 812 812 811 811 811 811 810 810 810 811 811 811 810 810 810 810 809 809 809 808 807 807 806 805 804 803 802 801 801 800 799 798 797 796 795 795 794 794 794 793 793 792 791 791 790 790 789 789 788 788 787 787 786 786 785 785 784
817 817 816 816 816 815 815 815 815 815 815 815 815 815 814 814 814 814 814 814 814 814 813 813 813 813 812 812 812 811 811 810 810 810 809 809 809 809 809 809 809 809 809 809 809 808 808 808 807 806 806 805 804 803 802 801 800 800 799 799 797 796 795 794 794 794 794 793 792 792 791 791 790 789 789 788 788 787 787 786 786 785 785 784 784 783
816 816 815 815 815 814 814 814 814 814 814 814 814 814 814 814 814 814 814 814 813 813 813 812 812 812 812 812 811 811 810 810 809 809 809 809 808 808 808 808 809 809 809 808 808 807 807 806 806 805 805 804 804 803 801 800 799 799 798 798 797 796 795 794 793 793 793 792 792 791 790 790 789 789 788 787 787 786 785 785 784 784 783 783 782 782
815 815 814 814 814 814 814 814 814 814 814 814 813 813 813 813 813 813 813 813 812 812 812 812 812 811 811 811 811 810 810 809 809 809 809 808 808 808 807 807 807 807 807 807 807 806 806 805 805 804 804 803 803 802 800 799 799 798 797 797 796 796 794 793 793 792 792 791 790 790 789 789 789 788 787 786 785 785 784 784 783 782 782 782 781 780
814 814 814 813 813 813 813 813 813 813 813 813 812 812 812 812 812 812 812 812 811 811 811 811 811 811 811 810 810 810 809 809 809 809 808 808 807 807 807 807 807 806 806 806 806 805 805 804 804 803 803 802 802 801 800 799 798 797 796 796 795 794 794 793 792 791 791 790 789 789 789 788 788 787 786 785 784 784 783 783 782 781 781 780 780 779
813 813 813 812 812 812 812 812 812 812 812 812 811 811 811 811 811 811 811 810 810 810 810 810 810 810 810 809 809 809 809 809 809 808 808 807 807 807 806 806 806 806 805 805 804 804 804 803 803 802 802 801 800 799 799 798 797 796 795 794 794 793 792 792 791 790 790 789 789 788 788 788 787 786 785 784 783 783 782 781 781 780 779 779 778 778
812 812 812 812 811 811 811 811 811 811 811 811 810 810 810 810 810 810 810 809 809 809 809 809 809 809 809 809 809 809 808 808 808 808 807 807 807 806 806 806 805 805 804 804 804 803 803 802 802 801 801 800 799 798 797 797 796 795 794 794 793 792 791 790 790 789 789 788 788 787 787 787 786 785 784 783 782 781 780 780 779 779 778 778 777 776
811 811 811 811 810 810 810 810 810 810 810 810 809 809 809 809 809 809 809 809 809 809 809 809 809 809 808 808 808 808 808 808 807 807 807 806 806 806 805 805 805 804 804 803 803 802 801 801 800 800 800 799 798 797 796 795 795 794 794 793 792 791 790 789 789 788 788 787 787 786 786 786 785 784 783 782 781 780 779 778 778 777 777 776 775 774
809 809 809 809 809 809 809 809 809 809 809 809 809 808 808 808 808 808 808 808 808 808 808 808 808 808 807 807 807 807 807 807 806 806 806 806 805 805 804 804 804 803 803 802 801 801 800 799 799 798 798 797 797 795 794 794 794 793 793 792 791 790 789 788 788 787 787 786 785 785 785 784 784 783 782 781 779 778 777 776 776 775 775 774 774 773
808 808 808 808 808 808 808 808 808 808 808 808 808 807 807 807 807 807 807 807 807 807 807 807 807 807 806 806 806 806 806 806 806 805 805 805 804 804 804 804 803 803 802 801 800 799 799 798 797 796 795 795 794 794 793 793 792 792 791 791 790 789 788 787 786 786 785 785 784 784 783 783 782 782 781 780 779 777 775 774 774 774 773 773 772 771
807 807 807 807 807 807 807 807 807 807 807 807 806 806 806 806 806 806 806 806 806 806 806 806 805 805 805 805 805 805 805 805 805 804 804 804 804 804 803 803 802 802 801 800 799 799 798 797 795 794 793 793 792 792 792 792 791 791 790 789 789 788 787 786 785 784 784 784 783 782 782 781 781 780 779 779 777 775 774 773 772 772 771 771 771 770